1497254400.44,9376,20.31,74136.0,27.27,-1.47,-3.59,0,*7B
1497254401.62,9377,20.31,74134.8,27.31,-2.35,-4.45,0,*71
1497254402.81,9378,20.31,74132.5,27.33,-2.15,-4.21,0,*7C
1497254404.03,9379,20.31,74138.3,27.37,-2.11,-4.25,0,*79
1497254405.24,9380,20.31,74136.5,27.41,-2.67,-4.65,0,*7B
1497254406.45,9381,20.31,74134.3,27.41,-3.23,-5.31,0,*7B
1497254407.65,9382,20.31,74132.0,27.41,-2.83,-4.85,0,*7D
1497254408.87,9383,20.31,74134.3,27.41,-3.11,-5.23,0,*7B
1497254410.09,9384,20.31,74136.3,27.45,-3.87,-5.85,0,*7B
1497254411.32,9385,20.31,74134.8,27.43,-2.71,-4.61,0,*7F
1497254412.56,9386,20.31,74136.0,27.47,-2.47,-4.41,0,*7F
1497254413.77,9387,20.31,74134.8,27.49,-2.83,-4.89,0,*7C
1497254414.96,9388,20.31,74138.5,27.49,-3.87,-5.97,0,*78
1497254416.22,9389,20.31,74134.5,27.51,-3.71,-5.85,0,*7A
1497254417.43,9390,20.31,74136.0,27.53,-2.55,-4.65,0,*78
1497254418.64,9391,20.31,74134.3,27.53,-1.55,-3.59,0,*72
1497254419.84,9392,20.31,74138.0,27.61,-1.91,-3.95,0,*78
1497254421.08,9393,20.31,74136.3,27.63,-2.79,-4.77,0,*75
1497254422.31,9394,20.31,74138.3,27.63,-2.51,-4.45,0,*79
1497254423.53,9395,20.31,74136.8,27.65,-3.75,-5.73,0,*7D
1497254424.77,9396,20.31,74134.5,27.67,-4.01,-5.97,0,*72
1497254426.02,9397,20.31,74138.0,27.67,-3.83,-5.69,0,*7F
1497254427.26,9398,20.31,74138.5,27.67,-3.35,-5.19,0,*7A
1497254428.45,9399,20.31,74136.8,27.69,-3.15,-4.99,0,*7E
1497254429.66,9400,20.31,74138.5,27.69,-3.23,-5.11,0,*7D
1497254430.9,9401,20.31,74136.5,27.71,-3.87,-5.77,0,*7B
1497254432.11,9402,20.31,74134.8,27.71,-4.33,-6.13,0,*71
1497254433.37,9403,20.31,74138.5,27.71,-5.07,-7.05,0,*70
1497254434.59,9404,20.31,74136.5,27.71,-4.69,-6.51,0,*7E
1497254435.8,9405,20.31,74132.3,27.71,-4.57,-6.39,0,*7C
1497254437.03,9406,20.31,74134.3,27.71,-4.69,-6.69,0,*77
1497254438.26,9407,20.31,74134.8,27.71,-4.65,-6.63,0,*70
1497254439.52,9408,20.31,74136.5,27.71,-5.73,-7.73,0,*79
1497254440.7,9409,20.31,74136.0,27.69,-6.59,-8.59,0,*7D
1497254441.91,9410,20.31,74134.3,27.69,-6.39,-8.11,0,*7F
1497254443.1,9411,20.31,74134.8,27.65,-6.35,-8.21,0,*7D
1497254444.35,9412,20.31,74134.8,27.67,-5.27,-7.11,0,*70
1497254445.58,9413,20.31,74132.8,27.67,-5.39,-7.27,0,*7B
1497254446.82,9414,20.31,74138.8,27.65,-5.77,-7.95,0,*7D
1497254448.05,9415,20.31,74134.5,27.63,-5.43,-7.31,0,*73
1497254449.23,9416,20.31,74134.3,27.65,-4.17,-5.97,0,*78
1497254450.42,9417,20.31,74134.8,27.65,-4.29,-6.13,0,*7B
1497254451.65,9418,20.31,74132.3,27.67,-4.73,-6.47,0,*78
1497254452.89,9419,20.31,74136.0,27.65,-5.85,-7.73,0,*75
1497254454.13,9420,20.31,74132.5,27.67,-5.97,-7.91,0,*72
1497254455.32,9421,20.31,74134.5,27.65,-6.01,-7.83,0,*7E
1497254456.53,9422,20.31,74134.0,27.65,-5.47,-7.31,0,*75
1497254457.74,9423,20.38,74136.8,27.65,-6.01,-7.95,0,*7B
1497254459.0,9424,20.31,74136.5,27.67,-6.19,-8.03,0,*77
1497254460.2,9425,20.31,74136.5,27.63,-4.99,-6.69,0,*7A
1497254461.41,9426,20.31,74136.8,27.63,-4.65,-6.47,0,*76
1497254462.67,9427,20.31,74132.3,27.67,-5.19,-7.01,0,*7A
1497254463.86,9428,20.31,74132.0,27.65,-5.97,-7.87,0,*7F
1497254465.13,9429,20.31,74132.5,27.67,-5.81,-7.65,0,*77
1497254466.33,9430,20.31,74136.8,27.65,-4.77,-6.47,0,*74
1497254467.54,9431,20.31,74134.3,27.67,-5.43,-7.15,0,*77
1497254468.78,9432,20.31,74134.0,27.65,-6.23,-7.99,0,*77
1497254469.99,9433,20.31,74136.8,27.65,-6.01,-7.73,0,*72
1497254471.17,9434,20.31,74132.5,27.65,-6.81,-8.55,0,*76
1497254472.43,9435,20.31,74134.5,27.63,-6.23,-7.95,0,*7A
1497254473.64,9436,20.31,74136.3,27.63,-6.39,-8.21,0,*72
1497254474.87,9437,20.31,74134.3,27.63,-6.39,-8.11,0,*70
1497254476.08,9438,20.31,74134.0,27.61,-7.01,-8.89,0,*76
1497254477.34,9439,20.31,74134.3,27.63,-6.27,-8.11,0,*71
1497254478.53,9440,20.31,74132.3,27.61,-6.59,-8.41,0,*71
1497254479.76,9441,20.31,74136.0,27.59,-6.97,-8.71,0,*7A
1497254481.0,9442,20.31,74132.0,27.55,-7.27,-9.01,0,*79
1497254482.26,9443,20.31,74132.3,27.55,-7.27,-9.15,0,*7D
1497254483.52,9444,20.38,74138.5,27.55,-7.95,-9.83,0,*7C
1497254484.77,9445,20.31,74134.3,27.51,-8.11,-10.05,0,*4C
1497254485.99,9446,20.31,74134.0,27.51,-8.45,-10.31,0,*49
1497254487.23,9447,20.31,74136.0,27.51,-8.59,-10.63,0,*42
1497254488.45,9448,20.31,74134.8,27.47,-8.41,-10.23,0,*47
1497254489.68,9449,20.31,74134.8,27.45,-7.99,-9.83,0,*7C
1497254490.93,9450,20.31,74136.5,27.43,-8.51,-10.31,0,*48
1497254492.14,9451,20.31,74132.5,27.41,-8.07,-9.93,0,*78
1497254493.36,9452,20.31,74132.0,27.39,-8.67,-10.57,0,*42
1497254494.59,9453,20.31,74138.0,27.39,-8.33,-10.01,0,*41
1497254495.78,9454,20.31,74134.5,27.33,-8.17,-9.93,0,*79
1497254496.98,9455,20.31,74132.0,27.33,-8.17,-10.01,0,*4B
1497254498.19,9456,20.31,74132.5,27.33,-8.03,-9.89,0,*75
1497254499.39,9457,20.31,74134.0,27.33,-8.71,-10.57,0,*4A
1497254500.57,9458,20.31,74138.5,27.31,-8.29,-9.97,0,*7E
1497254501.78,9459,20.31,74134.8,27.29,-8.33,-10.09,0,*42
1497254503.0,9460,20.31,74132.3,27.27,-8.93,-10.71,0,*43
1497254504.19,9461,20.31,74132.8,27.27,-8.37,-10.23,0,*4B
1497254505.41,9462,20.31,74134.0,27.25,-8.37,-10.19,0,*43
1497254506.64,9463,20.31,74136.5,27.25,-7.01,-8.55,0,*79
1497254507.89,9464,20.31,74134.0,27.25,-7.35,-9.11,0,*78
1497254509.1,9465,20.31,74134.8,27.25,-7.19,-8.75,0,*74
1497254510.31,9466,20.31,74134.8,27.27,-6.43,-8.03,0,*7A
1497254511.51,9467,20.31,74138.0,27.25,-7.19,-8.75,0,*76
1497254512.72,9468,20.31,74136.3,27.25,-6.77,-8.41,0,*77
1497254513.94,9469,20.31,74134.5,27.25,-6.63,-8.25,0,*71
1497254515.17,9470,20.31,74138.0,27.25,-6.43,-8.11,0,*7C
1497254516.38,9471,20.31,74136.0,27.25,-6.55,-8.25,0,*7D
1497254517.58,9472,20.31,74132.8,27.25,-6.69,-8.29,0,*7D
1497254518.81,9473,20.31,74136.5,27.25,-5.89,-7.49,0,*78
1497254520.08,9474,20.31,74134.0,27.29,-5.85,-7.43,0,*75
1497254521.34,9475,20.31,74134.5,27.29,-5.93,-7.43,0,*73
1497254522.53,9476,20.31,74138.3,27.31,-6.55,-8.17,0,*7E
1497254523.74,9477,20.31,74136.0,27.31,-6.35,-7.91,0,*78
1497254524.96,9478,20.31,74138.0,27.31,-6.35,-8.07,0,*77
1497254526.2,9479,20.31,74138.8,27.31,-5.93,-7.61,0,*76
1497254527.41,9480,20.31,74136.0,27.31,-5.27,-6.85,0,*74
1497254528.61,9481,20.31,74132.0,27.37,-4.77,-6.35,0,*7C
1497254529.82,9482,20.31,74136.0,27.39,-4.65,-6.13,0,*76
1497254531.03,9483,20.31,74132.8,27.41,-4.89,-6.55,0,*78
1497254532.29,9484,20.31,74132.8,27.43,-5.07,-6.63,0,*7F
1497254533.5,9485,20.31,74136.8,27.45,-5.15,-6.73,0,*7A
1497254534.72,9486,20.31,74134.8,27.45,-6.09,-7.65,0,*71
1497254535.93,9487,20.31,74134.3,27.45,-6.51,-7.99,0,*7E
1497254537.11,9488,20.31,74134.0,27.45,-6.01,-7.53,0,*72
1497254538.32,9489,20.31,74136.8,27.47,-6.59,-8.29,0,*7E
1497254539.59,9490,20.31,74132.5,27.47,-7.65,-9.37,0,*76
1497254540.79,9491,20.31,74138.3,27.47,-6.89,-8.33,0,*71
1497254542.0,9492,20.31,74136.5,27.47,-6.59,-8.17,0,*79
1497254543.24,9493,20.31,74134.8,27.47,-7.27,-8.89,0,*77
1497254544.48,9494,20.31,74134.0,27.45,-7.95,-9.45,0,*7A
1497254545.7,9495,20.31,74134.8,27.43,-8.59,-10.31,0,*49
1497254546.92,9496,20.31,74132.8,27.43,-8.55,-10.15,0,*40
1497254548.18,9497,20.31,74132.5,27.39,-7.95,-9.57,0,*71
1497254549.4,9498,20.31,74136.0,27.39,-8.37,-9.97,0,*75
1497254550.66,9499,20.31,74136.5,27.39,-7.69,-9.15,0,*7A
1497254551.92,9500,20.31,74132.0,27.39,-7.69,-9.15,0,*7B
1497254553.19,9501,20.31,74132.8,27.39,-7.99,-9.53,0,*77
1497254554.39,9502,20.31,74138.0,27.37,-8.41,-10.01,0,*4F
1497254555.57,9503,20.31,74136.3,27.33,-7.11,-8.63,0,*7D
1497254556.78,9504,20.31,74132.5,27.37,-6.59,-8.11,0,*76
1497254557.99,9505,20.31,74138.3,27.37,-6.47,-7.95,0,*7B
1497254559.18,9506,20.31,74134.8,27.37,-6.77,-8.25,0,*7F
1497254560.36,9507,20.31,74138.3,27.37,-7.19,-8.67,0,*71
1497254561.56,9508,20.31,74132.3,27.37,-8.45,-10.01,0,*41
1497254562.76,9509,20.31,74134.8,27.37,-7.27,-8.63,0,*76
1497254563.94,9510,20.31,74136.8,27.37,-7.83,-9.31,0,*76
1497254565.15,9511,20.31,74138.0,27.37,-7.77,-9.27,0,*7B
1497254566.39,9512,20.31,74134.8,27.33,-8.11,-9.49,0,*7B
1497254567.61,9513,20.31,74136.5,27.33,-7.61,-9.05,0,*7A
1497254568.79,9514,20.31,74134.8,27.33,-7.23,-8.93,0,*75
1497254570.0,9515,20.31,74132.0,27.37,-7.53,-9.15,0,*78
1497254571.21,9516,20.31,74132.0,27.33,-7.61,-9.05,0,*7F
1497254572.4,9517,20.31,74136.5,27.37,-7.15,-8.63,0,*78
1497254573.61,9518,20.31,74132.0,27.33,-7.35,-8.93,0,*7E
1497254574.82,9519,20.31,74136.0,27.33,-6.51,-8.03,0,*75
1497254576.03,9520,20.31,74138.3,27.37,-4.89,-6.47,0,*72
1497254577.24,9521,20.31,74132.8,27.39,-4.53,-6.05,0,*7C
1497254578.45,9522,20.31,74136.8,27.41,-4.21,-5.77,0,*73
1497254579.69,9523,20.31,74132.5,27.45,-3.55,-5.07,0,*75
1497254580.92,9524,20.31,74130.8,27.49,-3.75,-5.19,0,*73
1497254582.12,9525,20.31,74134.5,27.55,-4.45,-6.01,0,*71
1497254583.34,9526,20.31,74138.3,27.53,-5.97,-7.43,0,*7D
1497254584.56,9527,20.31,74134.8,27.51,-7.05,-8.59,0,*73
1497254585.8,9528,20.31,74132.5,27.55,-6.47,-7.99,0,*7C
1497254587.01,9529,20.38,74138.8,27.59,-7.11,-8.63,0,*79
1497254588.25,9530,20.31,74134.8,27.55,-7.95,-9.71,0,*73
1497254589.47,9531,20.31,74134.8,27.53,-8.11,-9.71,0,*77
1497254590.67,9532,20.31,74136.8,27.53,-7.91,-9.27,0,*70
1497254591.89,9533,20.31,74134.3,27.51,-8.37,-9.93,0,*7F
1497254593.12,9534,20.38,74138.0,27.49,-7.69,-9.15,0,*7B
1497254594.3,9535,20.31,74136.3,27.49,-8.21,-9.71,0,*7B
1497254595.5,9536,20.31,74136.5,27.49,-8.41,-10.05,0,*45
1497254596.68,9537,20.31,74134.3,27.49,-8.17,-9.67,0,*7B
1497254597.91,9538,20.31,74136.0,27.47,-8.33,-9.83,0,*76
1497254599.13,9539,20.31,74134.3,27.47,-8.41,-9.93,0,*73
1497254600.34,9540,20.31,74134.5,27.45,-8.25,-9.83,0,*7C
1497254601.57,9541,20.31,74136.3,27.43,-8.03,-9.71,0,*72
1497254602.82,9542,20.31,74138.3,27.43,-8.81,-10.35,0,*43
1497254604.02,9543,20.31,74134.3,27.43,-7.87,-9.31,0,*77
1497254605.23,9544,20.31,74138.5,27.43,-8.17,-9.67,0,*75
1497254606.5,9545,20.31,74134.3,27.43,-7.73,-9.37,0,*7C
1497254607.7,9546,20.31,74136.0,27.43,-7.87,-9.23,0,*71
1497254608.92,9547,20.31,74132.8,27.41,-9.71,-11.37,0,*49
1497254610.17,9548,20.38,74138.0,27.39,-9.15,-10.45,0,*4F
1497254611.41,9549,20.31,74134.5,27.39,-7.77,-9.19,0,*75
1497254612.62,9550,20.31,74134.8,27.39,-7.53,-8.93,0,*78
1497254613.88,9551,20.31,74136.5,27.39,-7.69,-9.15,0,*7F
1497254615.11,9552,20.31,74136.0,27.39,-8.63,-10.15,0,*41
1497254616.32,9553,20.31,74136.0,27.37,-9.53,-11.11,0,*49
1497254617.55,9554,20.31,74136.0,27.29,-9.01,-10.57,0,*45
1497254618.74,9555,20.31,74136.3,27.31,-8.67,-10.31,0,*4C
1497254619.95,9556,20.31,74136.0,27.31,-9.97,-11.59,0,*4E
1497254621.16,9557,20.31,74134.0,27.27,-9.53,-11.19,0,*44
1497254622.34,9558,20.38,74136.8,27.27,-9.27,-10.85,0,*4C
1497254623.56,9559,20.31,74136.0,27.25,-8.63,-10.31,0,*41
1497254624.78,9560,20.31,74136.5,27.25,-8.67,-10.27,0,*48
1497254625.99,9561,20.31,74138.3,27.25,-8.17,-9.75,0,*71
1497254627.19,9562,20.31,74132.3,27.23,-8.67,-10.35,0,*4F
1497254628.4,9563,20.31,74132.8,27.23,-8.21,-9.61,0,*75
1497254629.62,9564,20.31,74136.0,27.21,-8.25,-9.79,0,*7D
1497254630.81,9565,20.31,74136.8,27.23,-8.41,-9.97,0,*7C
1497254632.02,9566,20.31,74138.5,27.21,-8.59,-10.09,0,*4B
1497254633.24,9567,20.38,74138.0,27.21,-9.27,-10.93,0,*41
1497254634.46,9568,20.31,74134.3,27.21,-8.37,-9.97,0,*72
1497254635.68,9569,20.38,74136.8,27.19,-9.19,-10.79,0,*4D
1497254636.86,9570,20.31,74134.8,27.19,-8.33,-9.97,0,*74
1497254638.06,9571,20.31,74136.5,27.19,-8.03,-9.67,0,*79
1497254639.31,9572,20.31,74136.0,27.17,-8.97,-10.67,0,*41
1497254640.54,9573,20.38,74136.5,27.17,-9.89,-11.67,0,*4F
1497254641.76,9574,20.31,74136.5,27.15,-9.75,-11.59,0,*44
1497254642.96,9575,20.31,74136.8,27.11,-10.23,-12.03,0,*76
1497254644.2,9576,20.31,74136.5,27.09,-10.09,-11.93,0,*7E
1497254645.44,9577,20.31,74134.3,27.05,-9.93,-11.77,0,*42
1497254646.63,9578,20.31,74134.3,27.03,-9.23,-11.01,0,*41
1497254647.83,9579,20.31,74136.3,27.03,-8.97,-10.89,0,*4F
1497254649.01,9580,20.31,74138.3,27.03,-8.29,-9.89,0,*74
1497254650.22,9581,20.31,74136.0,27.03,-8.03,-9.79,0,*72
1497254651.42,9582,20.31,74132.5,27.03,-8.45,-10.35,0,*43
1497254652.62,9583,20.31,74138.0,27.03,-8.45,-10.31,0,*46
1497254653.82,9584,20.31,74134.5,27.03,-8.17,-9.93,0,*76
1497254655.06,9585,20.31,74136.3,26.99,-8.41,-10.41,0,*41
1497254656.29,9586,20.31,74138.8,26.99,-9.89,-11.77,0,*43
1497254657.54,9587,20.31,74136.5,26.95,-9.75,-11.59,0,*41
1497254658.78,9588,20.31,74136.0,26.95,-9.23,-11.29,0,*4A
1497254660.0,9589,20.38,74142.3,26.93,-9.15,-11.11,0,*43
1497254661.22,9590,20.31,74136.8,26.93,-9.79,-11.77,0,*41
1497254662.49,9591,20.38,74140.8,26.91,-9.61,-11.63,0,*4E
1497254663.7,9592,20.31,74136.5,26.89,-9.27,-11.51,0,*47
1497254664.92,9593,20.31,74138.5,26.89,-9.19,-11.29,0,*44
1497254666.17,9594,20.31,74138.8,26.87,-8.67,-10.75,0,*4D
1497254667.41,9595,20.31,74138.5,26.87,-8.59,-10.71,0,*45
1497254668.65,9596,20.38,74142.0,26.87,-7.73,-9.75,0,*7D
1497254669.87,9597,20.31,74138.3,26.87,-8.37,-10.45,0,*48
1497254671.12,9598,20.31,74136.8,26.87,-8.55,-10.63,0,*47
1497254672.33,9599,20.31,74136.0,26.87,-7.87,-9.89,0,*7A
1497254673.54,9600,20.31,74138.0,26.87,-8.29,-10.49,0,*46
1497254674.81,9601,20.31,74138.0,26.87,-9.37,-11.55,0,*45
1497254676.03,9602,20.31,74136.5,26.85,-9.11,-11.19,0,*48
1497254677.3,9603,20.38,74140.0,26.83,-8.81,-11.07,0,*48
1497254678.5,9604,20.38,74140.3,26.85,-8.85,-11.19,0,*42
1497254679.71,9605,20.31,74138.8,26.85,-7.91,-10.09,0,*49
1497254680.93,9606,20.31,74138.0,26.83,-7.19,-9.71,0,*7B
1497254682.15,9607,20.31,74138.5,26.83,-6.35,-8.75,0,*70
1497254683.38,9608,20.31,74138.3,26.87,-5.39,-7.91,0,*71
1497254684.57,9609,20.31,74136.5,26.89,-4.13,-6.35,0,*78
1497254685.75,9610,20.31,74136.0,26.93,-2.23,-4.53,0,*7C
1497254686.97,9611,20.31,74138.8,27.03,-2.03,-4.37,0,*75
1497254688.19,9612,20.31,74136.5,27.09,-3.27,-5.55,0,*7E
1497254689.41,9613,20.31,74138.5,27.11,-3.87,-6.19,0,*77
1497254690.64,9614,20.31,74138.8,27.17,-4.65,-7.01,0,*75
1497254691.85,9615,20.31,74136.3,27.19,-5.07,-7.53,0,*78
1497254693.09,9616,20.31,74136.5,27.23,-5.15,-7.99,0,*77
1497254694.31,9617,20.38,74140.0,27.23,-5.35,-7.73,0,*70
1497254695.52,9618,20.31,74136.8,27.27,-5.55,-7.95,0,*75
1497254696.74,9619,20.31,74138.3,27.27,-5.55,-8.07,0,*70
1497254698.0,9620,20.38,74138.3,27.29,-5.15,-7.57,0,*7A
1497254699.2,9621,20.31,74138.3,27.31,-5.93,-8.67,0,*70
1497254700.42,9622,20.38,74138.3,27.31,-7.11,-9.53,0,*7D
1497254701.66,9623,20.31,74136.5,27.29,-8.21,-10.63,0,*42
1497254702.92,9624,20.31,74136.5,27.29,-9.15,-11.81,0,*4E
1497254704.17,9625,20.38,74136.8,27.27,-8.07,-10.71,0,*4D
1497254705.37,9626,20.38,74142.0,27.27,-7.39,-10.09,0,*43
1497254706.61,9627,20.38,74142.5,27.27,-6.97,-9.83,0,*7D
1497254707.83,9628,20.38,74138.5,27.25,-8.17,-11.01,0,*45
1497254709.06,9629,20.31,74136.5,27.25,-7.99,-10.85,0,*40
1497254710.29,9630,20.38,74140.8,27.25,-7.87,-10.71,0,*4C
1497254711.49,9631,20.38,74140.0,27.23,-8.21,-11.15,0,*4B
1497254712.7,9632,20.38,74140.5,27.23,-7.05,-9.97,0,*72
1497254713.92,9633,20.31,74136.5,27.23,-6.97,-9.75,0,*75
1497254715.14,9634,20.31,74134.8,27.23,-7.99,-10.93,0,*4D
1497254716.36,9635,20.31,74138.0,27.23,-6.97,-9.93,0,*7B
1497254717.58,9636,20.31,74136.5,27.27,-4.93,-7.95,0,*72
1497254718.79,9637,20.31,74138.3,27.27,-2.83,-5.69,0,*75
1497254719.98,9638,20.38,74138.8,27.33,-1.63,-4.57,0,*7E
1497254721.17,9639,20.38,74142.3,27.41,-0.93,-3.83,0,*4A
1497254722.41,9640,20.31,74138.3,27.45,-1.83,-4.81,0,*75
1497254723.62,9641,20.31,74138.5,27.51,-1.63,-4.53,0,*70
1497254724.84,9642,20.38,74138.0,27.59,-1.25,-4.25,0,*78
1497254726.05,9643,20.31,74138.5,27.65,-1.35,-4.65,0,*73
1497254727.29,9644,20.38,74136.8,27.67,-2.51,-5.55,0,*75
1497254728.5,9645,20.31,74136.5,27.73,-3.95,-7.05,0,*7F
1497254729.74,9646,20.38,74140.3,27.73,-3.51,-6.63,0,*75
1497254730.96,9647,20.31,74136.5,27.77,-3.47,-6.85,0,*7F
1497254732.2,9648,20.31,74136.5,27.79,-4.29,-7.61,0,*7A
1497254733.42,9649,20.38,74140.3,27.79,-3.91,-7.19,0,*70
1497254734.61,9650,20.31,74138.3,27.85,-3.11,-6.47,0,*79
1497254735.85,9651,20.31,74138.5,27.87,-3.67,-7.15,0,*7D
1497254737.06,9652,20.31,74136.5,27.89,-4.41,-7.69,0,*78
1497254738.3,9653,20.38,74142.3,27.91,-3.95,-7.31,0,*73
1497254739.52,9654,20.38,74138.5,27.91,-5.11,-8.55,0,*73
1497254740.7,9655,20.38,74140.0,27.93,-5.43,-9.01,0,*77
1497254741.89,9656,20.31,74136.3,27.93,-6.13,-9.75,0,*71
1497254743.1,9657,20.38,74142.3,27.93,-6.35,-9.83,0,*7D
1497254744.3,9658,20.31,74138.5,27.93,-6.47,-10.01,0,*45
1497254745.51,9659,20.38,74140.8,27.93,-5.61,-9.19,0,*72
1497254746.71,9660,20.38,74140.8,27.93,-4.41,-7.99,0,*7D
1497254747.93,9661,20.31,74138.3,27.97,-3.19,-6.77,0,*73
1497254749.17,9662,20.38,74140.5,28.01,-0.97,-4.41,0,*42
1497254750.39,9663,20.31,74136.8,28.09,-0.15,-3.51,0,*47
1497254751.64,9664,20.38,74142.3,28.13,-0.27,-3.55,0,*4E
1497254752.81,9665,20.38,74140.0,28.19,-0.65,-4.17,0,*42
1497254754.02,9666,20.38,74138.5,28.23,-1.83,-5.35,0,*70
1497254755.24,9667,20.38,74140.8,28.29,-2.15,-5.61,0,*76
1497254756.45,9668,20.38,74140.0,28.31,-3.39,-6.89,0,*7A
1497254757.68,9669,20.38,74138.8,28.33,-4.21,-7.73,0,*73
1497254758.89,9670,20.31,74138.8,28.33,-5.15,-8.67,0,*77
1497254760.08,9671,20.31,74136.5,28.33,-6.73,-10.49,0,*40
1497254761.28,9672,20.31,74136.0,28.33,-7.15,-10.93,0,*45
1497254762.53,9673,20.38,74140.5,28.29,-7.95,-11.67,0,*4D
1497254763.74,9674,20.31,74138.3,28.27,-7.27,-10.89,0,*4C
1497254764.96,9675,20.31,74136.3,28.27,-7.73,-11.41,0,*49
1497254766.2,9676,20.38,74138.3,28.21,-7.35,-10.89,0,*4B
1497254767.44,9677,20.38,74142.0,28.19,-7.01,-10.71,0,*41
1497254768.68,9678,20.38,74142.0,28.21,-6.23,-9.93,0,*70
1497254769.87,9679,20.38,74140.0,28.19,-6.77,-10.53,0,*4F
1497254771.07,9680,20.38,74140.5,28.19,-6.51,-10.19,0,*43
1497254772.29,9681,20.31,74138.5,28.19,-6.27,-10.19,0,*43
1497254773.53,9682,20.38,74138.3,28.17,-7.05,-11.01,0,*47
1497254774.72,9683,20.38,74136.8,28.19,-6.69,-10.53,0,*45
1497254775.95,9684,20.38,74138.0,28.13,-7.35,-11.19,0,*4F
1497254777.2,9685,20.38,74140.5,28.15,-6.93,-10.75,0,*4E
1497254778.39,9686,20.38,74140.0,28.15,-6.55,-10.49,0,*48
1497254779.6,9687,20.38,74140.5,28.13,-6.59,-10.53,0,*48
1497254780.84,9688,20.31,74138.0,28.13,-5.81,-9.79,0,*71
1497254782.07,9689,20.38,74140.0,28.13,-5.27,-9.27,0,*77
1497254783.31,9690,20.38,74136.8,28.15,-5.23,-9.41,0,*7D
1497254784.52,9691,20.31,74136.5,28.15,-5.89,-9.93,0,*73
1497254785.71,9692,20.38,74140.5,28.15,-6.01,-10.05,0,*44
1497254786.92,9693,20.38,74138.3,28.15,-5.51,-9.49,0,*73
1497254788.13,9694,20.38,74138.3,28.19,-5.07,-9.19,0,*7E
1497254789.39,9695,20.38,74138.8,28.17,-5.07,-9.15,0,*7D
1497254790.56,9696,20.38,74136.3,28.19,-4.53,-8.63,0,*70
1497254791.83,9697,20.38,74138.0,28.21,-3.59,-7.57,0,*7F
1497254793.03,9698,20.38,74136.8,28.27,-2.75,-6.69,0,*75
1497254794.25,9699,20.38,74140.0,28.29,-3.15,-7.27,0,*76
1497254795.49,9700,20.31,74136.3,28.31,-2.87,-7.01,0,*70
1497254796.7,9701,20.31,74136.5,28.37,-2.63,-6.73,0,*79
1497254797.92,9702,20.38,74136.0,28.39,-2.95,-6.89,0,*78
1497254799.11,9703,20.38,74138.3,28.41,-3.19,-7.49,0,*7E
1497254800.32,9704,20.38,74136.8,28.45,-3.19,-7.35,0,*76
1497254801.56,9705,20.38,74138.5,28.45,-3.43,-7.61,0,*79
1497254802.79,9706,20.31,74136.5,28.47,-3.23,-7.39,0,*73
1497254804.01,9707,20.38,74138.5,28.53,-3.67,-7.83,0,*76
1497254805.24,9708,20.38,74138.3,28.55,-3.71,-7.83,0,*78
1497254806.5,9709,20.38,74136.0,28.59,-3.59,-7.77,0,*74
1497254807.71,9710,20.31,74136.8,28.59,-4.65,-8.97,0,*75
1497254808.93,9711,20.38,74138.3,28.61,-5.97,-10.45,0,*45
1497254810.15,9712,20.38,74140.0,28.59,-6.81,-11.23,0,*48
1497254811.36,9713,20.38,74140.5,28.57,-6.63,-10.97,0,*45
1497254812.58,9714,20.38,74138.8,28.59,-5.51,-9.93,0,*72
1497254813.79,9715,20.38,74138.8,28.57,-5.73,-10.01,0,*4E
1497254815.01,9716,20.38,74138.0,28.57,-5.97,-10.41,0,*43
1497254816.23,9717,20.38,74138.5,28.59,-6.55,-11.01,0,*44
1497254817.42,9718,20.31,74134.8,28.57,-6.59,-10.93,0,*43
1497254818.61,9719,20.38,74138.8,28.57,-6.77,-11.23,0,*44
1497254819.86,9720,20.38,74140.0,28.57,-6.23,-10.67,0,*4E
1497254821.09,9721,20.31,74138.5,28.57,-7.99,-12.61,0,*4B
1497254822.35,9722,20.38,74138.5,28.55,-8.03,-12.79,0,*4F
1497254823.62,9723,20.31,74136.3,28.51,-7.77,-12.57,0,*4A
1497254824.84,9724,20.31,74134.3,28.51,-6.05,-10.93,0,*43
1497254826.1,9725,20.38,74136.3,28.51,-5.23,-9.83,0,*7C
1497254827.34,9726,20.38,74138.0,28.51,-4.01,-8.59,0,*78
1497254828.55,9727,20.38,74138.8,28.55,-3.07,-7.49,0,*72
1497254829.78,9728,20.38,74138.3,28.59,-3.55,-8.21,0,*77
1497254831.0,9729,20.38,74138.8,28.63,-1.99,-6.47,0,*73
1497254832.2,9730,20.38,74138.0,28.67,-2.83,-7.35,0,*73
1497254833.44,9731,20.38,74138.8,28.69,-3.31,-7.91,0,*7A
1497254834.67,9732,20.38,74138.5,28.77,-2.43,-6.93,0,*71
1497254835.87,9733,20.38,74138.0,28.77,-3.87,-8.59,0,*71
1497254837.13,9734,20.38,74138.3,28.81,-4.81,-9.61,0,*74
1497254838.37,9735,20.38,74138.3,28.81,-5.61,-10.23,0,*44
1497254839.55,9736,20.38,74140.0,28.79,-6.39,-11.15,0,*4A
1497254840.82,9737,20.38,74140.5,28.81,-6.27,-11.07,0,*40
1497254842.0,9738,20.38,74136.8,28.79,-6.39,-11.15,0,*44
1497254843.25,9739,20.38,74136.0,28.81,-5.77,-10.57,0,*4C
1497254844.45,9740,20.38,74138.0,28.83,-4.53,-9.41,0,*78
1497254845.66,9741,20.31,74136.5,28.83,-2.99,-7.65,0,*71
1497254846.85,9742,20.38,74138.0,28.87,-2.15,-6.81,0,*79
1497254848.06,9743,20.38,74138.3,28.91,-2.55,-7.15,0,*77
1497254849.31,9744,20.31,74132.8,28.95,-4.69,-9.45,0,*76
1497254850.56,9745,20.38,74136.0,28.95,-4.77,-9.57,0,*7B
1497254851.78,9746,20.38,74136.5,28.99,-2.95,-7.53,0,*74
1497254853.04,9747,20.38,74138.5,29.03,-2.71,-6.97,0,*74
1497254854.26,9748,20.31,74136.5,29.05,-2.95,-7.61,0,*7F
1497254855.47,9749,20.38,74136.8,29.07,-2.15,-6.55,0,*72
1497254856.68,9750,20.31,74136.5,29.13,-2.83,-7.39,0,*7B
1497254857.9,9751,20.38,74136.0,29.17,-3.79,-8.51,0,*7B
1497254859.1,9752,20.38,74138.5,29.21,-4.49,-9.11,0,*7C
1497254860.31,9753,20.38,74138.0,29.21,-4.29,-8.81,0,*73
1497254861.5,9754,20.38,74136.3,29.21,-4.41,-8.89,0,*72
1497254862.76,9755,20.38,74136.3,29.25,-5.03,-9.57,0,*72
1497254864.02,9756,20.38,74138.0,29.23,-4.89,-9.45,0,*77
1497254865.23,9757,20.31,74134.8,29.23,-5.43,-10.05,0,*4D
1497254866.48,9758,20.38,74138.0,29.25,-5.65,-10.27,0,*40
1497254867.72,9759,20.38,74138.8,29.23,-6.47,-11.07,0,*47
1497254868.95,9760,20.38,74138.8,29.25,-7.53,-12.21,0,*48
1497254870.22,9761,20.38,74138.0,29.23,-8.07,-12.75,0,*40
1497254871.4,9762,20.38,74136.3,29.21,-8.67,-13.47,0,*47
1497254872.62,9763,20.38,74138.5,29.19,-8.17,-12.97,0,*46
1497254873.83,9764,20.38,74138.3,29.13,-8.29,-13.01,0,*48
1497254875.05,9765,20.38,74136.5,29.13,-7.77,-12.47,0,*4E
1497254876.29,9766,20.38,74138.0,29.09,-7.99,-12.65,0,*46
1497254877.53,9767,20.38,74142.8,29.09,-9.53,-14.43,0,*4D
1497254878.75,9768,20.38,74138.8,29.05,-9.41,-14.19,0,*42
1497254879.97,9769,20.38,74136.0,29.05,-10.53,-15.35,0,*77
1497254881.19,9770,20.38,74136.0,28.99,-10.89,-15.99,0,*7A
1497254882.44,9771,20.38,74138.8,28.97,-10.79,-15.85,0,*77
1497254883.66,9772,20.38,74138.3,28.89,-10.53,-15.53,0,*78
1497254884.89,9773,20.38,74134.8,28.85,-11.45,-16.41,0,*73
1497254886.1,9774,20.38,74138.3,28.83,-10.75,-15.67,0,*77
1497254887.31,9775,20.38,74136.0,28.79,-11.85,-16.93,0,*75
1497254888.54,9776,20.38,74140.5,28.75,-10.97,-16.13,0,*70
1497254889.79,9777,20.38,74138.8,28.69,-11.07,-16.03,0,*75
1497254891.03,9778,20.38,74136.3,28.65,-11.81,-16.83,0,*70
1497254892.25,9779,20.38,74138.8,28.61,-10.85,-15.75,0,*7A
1497254893.48,9780,20.38,74140.5,28.57,-11.11,-16.09,0,*7D
1497254894.68,9781,20.38,74138.8,28.53,-13.23,-18.49,0,*71
1497254895.92,9782,20.38,74136.5,28.51,-12.61,-17.69,0,*7A
1497254897.15,9783,20.38,74138.8,28.45,-11.59,-16.59,0,*74
1497254898.38,9784,20.38,74140.3,28.41,-12.39,-17.41,0,*7A
1497254899.6,9785,20.38,74138.0,28.39,-11.45,-16.55,0,*78
1497254900.85,9786,20.38,74138.3,28.35,-12.39,-17.45,0,*7F
1497254902.13,9787,20.38,74136.3,28.31,-12.35,-17.41,0,*72
1497254903.35,9788,20.38,74136.3,28.27,-11.67,-16.83,0,*71
1497254904.56,9789,20.38,74136.5,28.23,-11.85,-16.93,0,*79
1497254905.81,9790,20.38,74138.3,28.21,-13.01,-18.17,0,*7F
1497254907.03,9791,20.38,74138.8,28.15,-10.75,-15.63,0,*77
1497254908.27,9792,20.38,74138.3,28.13,-10.15,-15.01,0,*70
1497254909.48,9793,20.38,74138.5,28.13,-10.09,-14.89,0,*7D